GFSSE_925_thetae_258.txt.gz
Theta_e
344 343 346 348 349 350 350 351 349 343 343 345 348 345 349 349 350 351 350 353 352 352 352 352 351 350 352 352 353 353 352 353 353 352 351 350 350 349 348 348 346 349 349
342 342 343 346 349 350 349 349 349 348 343 345 343 348 348 350 338 344 353 353 354 351 351 351 351 352 353 353 353 354 352 352 353 352 351 349 350 348 349 348 345 348 349
341 344 343 343 348 349 349 344 348 349 348 344 343 345 349 347 342 347 352 353 352 353 354 354 353 353 353 353 352 352 351 350 350 349 347 349 347 347 349 349 349 347 347
343 346 346 344 347 346 347 345 345 348 348 348 345 347 342 341 346 353 354 353 352 354 354 354 351 349 348 348 350 350 350 350 347 346 348 348 350 349 349 347 344 343 345
346 346 346 347 350 350 343 345 343 341 339 342 342 342 342 344 346 349 352 351 353 354 354 350 347 347 346 346 346 347 348 352 343 343 345 347 347 349 348 346 344 343 342
348 347 350 351 351 350 348 345 347 345 343 343 343 342 342 347 350 354 354 353 353 353 351 348 347 345 346 347 346 345 345 344 338 336 339 340 339 340 345 347 345 345 344
348 349 348 349 351 351 350 349 349 350 347 345 351 353 351 352 352 352 352 352 351 347 344 346 347 345 346 346 347 344 343 339 338 337 338 339 339 339 339 336 334 335 339
348 347 347 341 348 350 351 351 347 348 351 350 351 352 350 350 349 352 352 352 346 336 339 343 345 346 348 346 346 345 343 336 336 338 338 343 342 344 346 346 345 345 343
348 349 347 349 350 350 351 351 351 352 353 352 351 351 351 352 351 351 349 347 340 339 342 343 345 345 347 347 346 346 343 331 326 329 332 335 336 343 342 342 342 342 342
348 346 346 347 349 349 351 349 349 352 352 352 351 351 350 352 352 350 347 344 345 342 342 343 343 346 346 345 345 345 343 327 325 328 328 327 329 325 318 317 317 319 325
348 347 347 348 348 349 348 350 348 351 352 352 353 351 352 352 352 350 345 343 342 341 340 341 342 345 344 344 345 345 346 328 325 323 325 322 319 316 314 315 315 314 315
349 349 348 346 347 348 349 350 348 349 353 351 351 353 350 348 347 346 344 342 340 340 340 342 343 343 342 342 343 345 345 334 327 325 326 326 323 321 321 320 318 316 315
349 349 347 346 347 348 347 346 349 350 351 352 351 351 346 343 344 344 343 341 337 338 338 339 341 344 345 346 347 348 345 338 330 330 329 329 329 328 327 327 326 324 322
348 348 347 347 346 348 345 345 346 349 349 347 345 343 342 341 341 343 341 339 338 339 342 343 345 347 347 347 345 346 348 342 333 335 335 333 332 332 332 331 330 330 329
347 349 348 345 344 346 346 345 345 345 345 340 339 343 346 343 340 340 339 339 342 341 342 345 346 347 347 348 346 342 345 344 337 338 339 338 336 336 336 334 334 333 332
345 347 347 346 344 345 345 344 342 340 338 338 342 345 346 344 340 338 338 340 339 343 346 345 346 346 347 347 345 343 342 343 342 339 340 341 340 340 339 339 338 337 336
343 344 346 346 345 343 340 339 340 344 344 344 345 346 346 346 342 338 337 337 342 345 346 343 344 344 345 347 346 344 344 343 342 342 342 342 342 342 342 341 341 341 340
343 344 344 346 346 345 342 343 345 346 346 345 345 346 347 346 343 337 336 341 345 346 346 345 344 344 348 347 345 345 344 344 343 343 343 344 344 344 345 344 343 343 342
342 345 345 346 346 347 345 346 346 346 346 346 345 345 346 345 342 341 344 347 347 346 346 345 344 350 348 346 348 346 346 348 346 344 344 344 345 346 346 347 346 345 344
344 344 346 346 346 346 346 347 345 347 347 347 347 346 346 346 346 347 348 349 347 346 345 343 348 350 346 348 347 342 345 348 347 344 345 344 344 346 347 346 348 348 347
345 343 344 345 347 346 346 343 342 345 347 347 346 346 346 346 347 347 349 349 345 345 344 347 352 347 347 350 346 344 350 348 348 346 343 345 346 345 344 344 345 346 347
345 345 343 344 346 346 346 347 346 347 347 347 347 347 346 346 346 348 350 349 345 345 345 347 352 347 347 349 349 346 351 346 343 342 341 341 338 338 339 340 340 341 343
346 345 344 345 346 346 348 349 349 348 348 348 349 349 348 348 348 349 349 349 346 346 345 346 353 347 347 348 348 346 346 347 335 339 338 339 339 338 340 341 342 342 341
345 345 346 346 347 348 347 350 351 351 350 349 349 349 347 346 347 347 348 348 349 347 347 349 351 348 348 348 346 348 346 343 340 344 337 340 338 336 337 335 337 339 343
345 346 346 347 348 349 348 349 351 351 350 351 350 350 347 347 345 346 348 350 350 351 349 352 352 345 347 350 349 347 342 340 342 337 345 338 338 337 334 335 340 344 347
346 346 346 347 349 349 349 349 351 351 352 352 353 352 350 345 345 346 348 349 352 352 347 353 352 352 349 350 348 348 348 345 342 340 338 333 333 337 338 338 343 347 352

GFSSE_925_thetae_261.txt.gz
Theta_e
346 347 347 347 350 351 343 342 342 344 346 350 350 349 347 351 346 349 352 353 354 353 353 352 351 353 354 353 353 354 354 352 353 352 351 351 350 350 350 350 349 348 349
346 348 347 349 351 351 347 342 343 343 343 344 350 350 349 344 346 346 352 353 350 350 350 352 354 354 353 354 353 353 348 349 351 351 348 350 348 350 350 349 348 347 348
344 347 347 347 350 349 348 346 343 343 345 344 344 347 348 344 351 350 353 349 355 355 354 354 354 354 351 348 350 352 351 350 348 346 350 349 346 348 350 349 349 348 347
345 347 348 343 348 347 344 344 348 346 342 343 347 341 343 348 351 351 352 352 352 353 353 353 353 348 346 347 347 347 350 344 344 346 348 350 349 349 348 344 347 347 345
347 347 347 347 346 343 344 343 342 347 343 341 340 339 344 351 352 353 349 349 351 349 347 350 353 352 348 345 345 348 351 343 340 345 347 347 348 349 349 348 347 346 344
349 349 349 351 352 344 343 341 340 339 340 340 340 341 343 347 348 353 348 352 349 348 346 349 352 348 347 347 344 344 340 338 341 342 343 342 343 341 345 346 347 344 344
349 350 351 348 349 347 345 345 344 343 344 342 345 344 348 350 353 351 348 350 344 344 347 350 348 347 346 346 344 343 338 334 341 343 344 344 341 339 342 338 337 337 338
349 350 349 348 351 346 347 347 347 346 345 344 345 350 352 347 348 348 350 349 340 343 344 345 346 347 347 345 346 345 339 330 339 341 341 342 346 347 347 346 346 344 343
351 349 346 348 350 348 347 350 349 350 349 350 348 349 348 347 349 348 350 346 345 340 343 345 345 346 346 347 346 344 335 324 333 334 334 335 335 341 339 341 341 340 340
349 348 347 350 350 351 352 349 349 348 348 348 350 351 350 349 350 349 347 347 343 342 344 344 345 345 344 345 345 344 341 327 334 336 334 329 324 322 318 316 315 320 325
350 349 348 350 351 351 352 351 349 348 349 349 352 352 351 352 352 351 346 343 341 342 342 342 344 345 343 344 344 345 344 334 335 334 334 322 321 319 317 316 314 316 315
347 348 348 349 350 351 349 352 352 351 353 353 354 353 354 352 352 350 347 341 340 340 341 343 343 342 345 348 349 350 348 338 336 334 334 327 325 324 323 322 321 319 317
347 348 349 349 350 349 349 351 351 351 353 351 350 352 349 349 350 349 349 348 348 342 345 344 346 348 347 349 349 350 350 342 337 337 334 331 330 329 328 328 327 326 325
347 348 349 350 350 351 350 350 352 350 352 351 352 349 344 347 345 347 348 346 342 340 344 344 349 347 348 349 348 347 350 346 338 339 339 336 335 333 333 332 331 330 330
347 348 348 351 350 351 348 348 348 350 350 350 347 343 344 348 346 345 343 344 342 341 344 345 346 348 347 351 349 343 348 348 343 339 341 340 339 338 337 336 335 335 334
346 347 348 350 350 349 348 346 347 347 349 347 345 346 345 346 343 346 342 341 340 343 345 345 345 347 348 350 349 344 345 346 343 341 342 342 342 341 340 340 340 339 338
345 346 347 348 348 348 348 348 347 346 344 344 344 343 345 345 345 342 341 339 342 345 346 347 345 346 351 350 348 346 345 344 346 343 343 344 344 344 344 343 342 342 342
343 346 347 346 347 348 348 348 346 345 346 347 347 348 346 346 344 341 341 340 345 346 347 348 348 351 353 351 350 351 349 346 344 344 344 345 345 346 346 346 345 344 344
344 344 347 347 347 347 347 346 346 347 348 348 349 348 345 346 345 345 346 346 346 347 347 346 349 355 353 350 351 350 351 349 349 347 344 344 345 345 348 348 346 347 347
345 345 346 348 348 346 348 346 347 349 349 349 348 349 347 347 344 343 349 347 347 348 350 348 352 352 350 353 350 346 350 352 348 347 348 348 349 347 348 346 348 349 347
346 345 347 348 349 349 349 348 348 347 349 349 349 348 346 346 345 346 351 351 346 346 346 344 352 353 352 352 352 349 355 350 351 349 346 346 347 346 344 341 341 347 348
346 346 346 348 348 347 349 348 347 347 349 349 350 348 346 346 346 348 348 351 348 350 346 345 348 353 351 351 353 352 354 351 346 346 342 344 343 341 343 342 341 341 341
346 348 347 346 348 347 348 349 350 349 350 350 350 350 348 345 345 346 348 349 349 346 351 347 351 351 352 352 349 351 350 349 344 342 341 341 340 341 341 342 336 337 338
345 347 348 347 346 347 348 350 351 350 350 350 350 351 351 347 346 347 348 348 349 353 349 351 351 351 347 350 352 350 347 346 346 346 344 343 341 339 337 340 340 343 346
345 347 348 348 347 348 349 350 352 352 352 352 351 352 352 349 348 349 349 351 352 356 351 349 351 351 351 351 353 352 347 347 343 346 347 342 340 341 340 341 344 353 354
345 347 348 349 346 349 349 351 353 352 353 353 353 352 351 349 350 346 346 346 348 352 353 353 351 352 352 352 354 353 351 350 349 348 347 344 343 341 340 341 344 350 353

GFSSE_925_thetae_264.txt.gz
Theta_e
347 347 349 351 344 344 342 343 346 348 350 350 350 346 350 347 350 351 353 354 353 351 352 354 355 355 355 354 354 353 354 353 352 350 350 351 351 350 349 350 348 348 350
346 347 350 348 344 342 343 343 343 344 345 347 351 349 348 348 350 352 348 349 349 351 355 354 354 354 354 353 352 352 352 352 352 350 347 346 351 350 349 345 347 348 349
347 347 348 348 347 343 343 344 344 344 343 345 345 343 345 352 350 353 355 355 355 356 355 354 349 350 347 351 352 351 349 345 346 348 350 347 347 351 350 350 349 348 344
347 347 348 344 350 342 342 344 345 344 342 344 343 344 349 348 350 354 351 351 350 351 349 347 347 351 347 349 351 350 343 340 343 347 347 348 348 350 348 347 347 348 342
346 348 348 346 349 342 342 344 342 341 339 343 347 351 353 354 354 353 352 349 349 348 347 347 351 354 350 348 347 346 339 337 343 344 344 345 347 349 349 350 347 344 346
347 348 348 352 350 343 341 341 341 341 339 340 342 347 352 348 355 355 348 348 347 345 349 353 353 353 350 345 343 338 336 341 341 341 341 341 341 343 345 346 345 346 344
349 349 349 351 351 346 341 340 341 340 340 339 346 346 348 353 353 351 346 343 345 348 347 349 351 351 346 347 344 337 332 338 339 341 341 341 345 346 345 341 339 342 341
349 348 348 349 348 344 342 342 341 342 343 345 346 350 353 350 350 350 344 341 344 345 346 347 347 348 346 346 345 334 326 336 334 335 336 341 346 347 349 348 347 346 346
349 347 346 349 348 352 343 344 346 346 347 346 346 351 348 351 350 343 340 343 342 344 345 345 346 344 346 346 344 342 326 332 333 334 331 329 333 335 336 337 338 339 342
348 346 345 347 348 349 349 345 345 346 348 350 348 349 348 348 343 344 342 346 345 345 344 344 345 344 344 344 345 344 334 334 336 334 330 327 321 324 327 319 318 324 329
346 345 345 347 350 351 352 349 346 348 350 348 348 347 351 349 349 351 345 347 343 343 342 344 344 343 348 349 348 346 341 338 335 335 332 323 323 323 323 321 318 317 317
347 346 347 347 350 350 349 350 351 350 350 352 353 353 350 351 351 349 345 341 341 342 343 344 347 349 349 347 349 350 344 341 339 336 333 328 327 327 326 325 323 322 321
347 345 347 347 349 346 349 350 350 350 351 353 354 354 351 350 349 348 348 347 349 346 347 349 350 350 351 349 348 348 349 343 343 342 339 333 332 331 330 329 329 328 327
346 346 347 347 347 347 348 348 349 350 350 349 351 353 350 349 349 348 348 349 348 348 350 351 350 353 352 351 350 348 349 346 344 344 344 340 339 336 335 334 333 332 331
346 347 347 348 348 348 349 348 349 348 349 349 350 350 348 349 348 347 348 348 349 349 349 351 351 352 352 349 348 348 347 347 346 345 346 344 343 342 341 340 338 337 337
345 346 347 349 348 349 348 351 350 349 349 348 346 347 350 350 349 347 348 348 348 350 350 351 353 352 351 349 349 349 350 349 349 348 347 348 345 344 343 342 342 342 342
345 345 347 348 348 349 349 351 350 349 347 345 344 349 351 351 351 351 349 348 349 351 353 352 352 349 350 348 348 349 349 349 349 350 349 348 349 348 346 345 344 344 343
344 345 346 346 346 348 348 349 347 346 345 344 345 347 351 351 352 352 349 347 352 350 348 349 349 351 350 349 349 349 349 350 351 351 350 349 349 349 350 350 347 346 346
342 345 346 346 346 347 349 348 348 347 346 345 346 348 351 350 350 352 348 350 353 349 348 349 352 353 351 350 347 347 349 349 350 349 351 351 351 350 348 350 349 347 346
342 344 347 347 346 348 348 348 348 349 349 348 346 348 350 349 350 351 349 352 351 348 348 352 358 353 352 352 349 347 350 349 349 349 349 347 347 349 350 351 352 352 348
345 344 347 349 350 349 349 349 350 351 351 349 348 349 351 349 349 351 349 349 350 349 352 353 355 354 351 351 349 347 349 349 348 346 345 346 348 347 348 351 353 351 351
348 348 348 350 352 352 350 350 350 350 350 350 349 350 351 350 349 351 350 348 348 348 352 355 356 353 351 352 352 349 349 348 346 347 347 346 346 345 344 347 349 349 351
347 349 349 351 352 353 350 351 351 350 351 352 351 351 351 350 349 351 352 349 352 352 348 354 355 357 351 352 355 352 351 350 348 346 345 345 347 344 344 342 341 342 346
347 347 350 351 352 354 353 351 351 351 350 350 350 350 349 350 349 350 353 354 354 348 350 353 353 356 355 347 351 352 355 353 350 350 347 346 344 340 341 340 341 347 357
346 347 349 351 352 352 354 352 353 353 350 350 349 350 352 351 350 351 353 354 354 355 354 357 356 360 354 351 348 349 353 351 352 351 353 348 347 343 339 337 343 346 352
346 346 348 351 354 353 353 354 353 353 353 350 350 350 351 349 349 351 352 353 354 354 356 357 358 358 354 355 351 352 349 350 350 349 349 348 347 345 340 337 336 340 347

GFSSE_925_thetae_270.txt.gz
Theta_e
341 342 344 344 347 349 347 345 344 345 346 345 347 347 348 351 350 348 349 349 348 350 354 354 354 354 354 354 354 352 348 352 352 348 348 350 347 346 348 346 348 349 350
343 341 344 345 347 351 344 344 342 344 345 347 347 348 348 348 346 352 350 353 354 354 354 354 354 353 354 353 353 353 353 348 345 346 344 347 351 345 346 345 344 344 346
347 348 347 347 348 347 345 347 343 343 344 346 351 352 353 352 352 354 354 353 349 353 353 353 353 353 352 348 341 347 348 347 347 348 348 347 350 351 349 345 350 347 345
348 347 347 344 348 346 346 345 344 343 344 348 352 351 349 353 353 353 349 345 347 353 354 353 352 351 354 342 334 340 344 346 349 349 350 346 344 348 348 350 349 348 343
348 347 347 345 345 344 348 348 348 344 344 352 353 351 349 354 353 353 351 346 348 353 354 354 352 350 345 332 333 341 341 343 345 348 345 346 347 351 349 348 348 348 347
349 348 347 348 348 349 350 343 340 344 351 351 353 353 354 353 353 352 347 349 350 352 355 354 352 350 346 331 338 340 341 342 344 342 343 339 338 344 347 346 344 343 345
349 348 348 346 346 346 344 340 340 341 349 351 352 354 353 352 351 348 348 348 348 349 351 352 353 346 333 330 338 337 338 342 344 344 346 348 346 347 347 343 339 340 346
350 348 347 343 341 340 341 342 341 347 352 351 354 348 347 347 343 343 346 346 347 346 345 348 346 343 329 332 333 335 336 337 338 339 343 344 347 345 344 347 348 347 346
348 348 348 347 346 340 341 340 339 345 348 347 346 347 347 340 336 338 343 345 344 345 344 344 346 341 333 334 334 335 335 332 329 329 330 321 323 323 325 333 336 339 341
347 349 348 348 348 347 345 338 338 346 343 342 345 346 337 347 337 333 342 344 343 344 345 345 347 346 340 337 337 337 338 334 332 328 322 317 314 314 314 314 317 323 326
348 349 349 346 348 348 349 344 341 343 343 345 348 347 350 352 352 354 346 343 344 347 348 348 348 348 348 344 340 339 339 335 334 331 326 325 324 322 321 319 318 316 314
343 347 350 353 350 350 348 348 345 348 350 351 353 352 352 351 347 346 342 343 348 348 348 350 349 349 349 353 347 346 340 337 337 335 332 330 330 329 328 327 327 326 324
343 345 350 350 351 349 347 351 352 351 354 354 355 351 350 347 343 338 340 349 349 349 352 351 350 351 350 352 349 346 343 342 342 342 342 340 338 337 335 333 331 331 330
344 346 350 350 351 350 349 350 348 352 356 351 354 352 352 350 351 348 346 346 349 349 350 350 350 351 347 347 348 346 344 345 345 344 344 344 344 343 342 341 340 339 337
345 348 349 348 349 349 349 350 350 351 352 353 348 352 351 349 349 348 344 347 346 349 350 350 351 351 351 348 349 348 347 346 347 348 345 345 345 345 345 344 344 343 343
345 348 349 350 348 348 350 348 349 349 350 349 351 347 351 349 347 348 346 345 346 352 350 350 351 350 350 349 348 349 349 348 348 350 349 348 347 346 346 345 345 345 344
345 348 348 347 348 348 350 349 350 349 350 348 351 347 351 351 350 349 348 344 348 344 351 352 350 350 350 347 349 349 348 348 349 350 350 351 349 348 348 347 347 346 345
345 347 348 346 347 349 351 347 349 349 348 347 351 350 352 353 348 351 345 346 348 348 348 348 348 350 348 350 347 348 349 349 349 350 349 348 352 351 349 349 349 348 344
346 347 347 348 347 349 349 348 351 349 349 346 346 350 351 352 351 352 350 351 346 351 347 348 355 348 350 350 349 349 347 348 349 351 347 349 349 347 350 351 351 351 351
347 348 349 347 348 348 348 351 349 350 347 348 345 350 349 351 351 350 355 352 341 349 349 354 351 349 350 353 349 350 347 348 348 346 346 346 349 347 351 351 352 352 354
345 348 349 347 351 348 352 350 351 350 347 347 346 352 351 350 351 350 354 347 343 349 352 354 351 357 351 350 347 352 350 348 346 346 344 344 347 347 345 347 348 353 348
344 349 349 350 351 351 351 349 348 347 348 347 347 349 352 350 351 351 350 353 347 348 346 352 354 354 357 352 351 351 359 353 348 347 346 344 348 345 346 346 346 344 346
345 347 351 352 352 350 350 349 349 348 348 351 349 348 349 351 351 350 349 350 354 347 351 352 353 353 353 355 351 354 363 364 354 349 346 345 346 346 344 343 341 341 340
346 346 351 353 355 351 351 351 353 352 352 351 352 351 351 351 352 351 351 348 350 354 346 351 355 355 356 352 353 350 352 353 361 359 348 349 348 348 349 345 342 339 341
347 349 351 354 356 356 350 354 355 353 353 352 348 349 352 351 352 351 351 356 350 349 349 351 355 357 357 356 354 353 355 356 353 359 360 353 350 347 345 344 344 341 338
348 349 352 355 355 357 357 351 356 353 354 353 353 354 351 355 352 352 352 351 353 354 349 349 355 354 355 351 351 354 351 351 352 357 358 354 352 348 344 342 341 341 340